TimeMDT,TemperatureF,Dew PointF,Humidity,Sea Level PressureIn,VisibilityMPH,Wind Direction,Wind SpeedMPH,Gust SpeedMPH,PrecipitationIn,Events,Conditions,WindDirDegrees,DateUTC
12:15 AM,41.0,30.2,65,29.65,10.0,West,12.7,19.6,N/A,,Overcast,270,2013-04-14 06:15:00
12:55 AM,41.0,33.8,76,29.65,10.0,West,6.9,-,N/A,,Mostly Cloudy,270,2013-04-14 06:55:00
1:15 AM,39.2,33.8,81,29.64,10.0,WSW,16.1,25.3,N/A,,Overcast,240,2013-04-14 07:15:00
1:55 AM,39.2,33.8,81,29.63,10.0,SW,10.4,20.7,0.04,,Overcast,230,2013-04-14 07:55:00
2:15 AM,39.2,33.8,81,29.63,10.0,WSW,6.9,-,0.01,,Overcast,240,2013-04-14 08:15:00
2:35 AM,37.4,32.0,81,29.63,10.0,North,4.6,-,0.02,,Overcast,360,2013-04-14 08:35:00
2:55 AM,35.6,30.2,81,29.64,10.0,North,8.1,-,0.03,,Overcast,360,2013-04-14 08:55:00
3:15 AM,33.8,30.2,87,29.65,5.0,NNW,6.9,-,0.02,,Overcast,330,2013-04-14 09:15:00
3:35 AM,33.8,30.2,87,29.65,2.5,Calm,Calm,-,0.04,,Overcast,0,2013-04-14 09:35:00
3:55 AM,33.8,30.2,87,29.66,1.8,Calm,Calm,-,0.08,,Overcast,0,2013-04-14 09:55:00
4:15 AM,33.8,28.4,81,29.65,2.5,SW,4.6,-,0.04,,Overcast,230,2013-04-14 10:15:00
4:35 AM,33.8,30.2,87,29.65,8.0,SW,12.7,16.1,0.06,,Overcast,230,2013-04-14 10:35:00
4:55 AM,33.8,30.2,87,29.66,5.0,SW,13.8,18.4,0.07,,Overcast,220,2013-04-14 10:55:00
5:15 AM,33.8,30.2,87,29.67,5.0,West,12.7,17.3,N/A,,Overcast,260,2013-04-14 11:15:00
5:35 AM,33.8,30.2,87,29.68,5.0,Calm,Calm,-,N/A,,Overcast,0,2013-04-14 11:35:00
5:55 AM,33.8,28.4,81,29.68,9.0,WSW,9.2,-,N/A,,Mostly Cloudy,240,2013-04-14 11:55:00
6:15 AM,33.8,28.4,81,29.68,3.0,SW,15.0,18.4,N/A,,Overcast,230,2013-04-14 12:15:00
6:35 AM,33.8,28.4,81,29.69,8.0,SW,9.2,-,N/A,,Overcast,230,2013-04-14 12:35:00
6:55 AM,33.8,28.4,81,29.70,10.0,SW,10.4,18.4,N/A,,Overcast,230,2013-04-14 12:55:00
7:15 AM,33.8,28.4,81,29.71,10.0,WSW,10.4,-,N/A,,Overcast,240,2013-04-14 13:15:00
7:35 AM,33.8,26.6,75,29.73,10.0,SW,13.8,20.7,N/A,,Overcast,230,2013-04-14 13:35:00
7:55 AM,33.8,24.8,70,29.74,10.0,WSW,11.5,19.6,N/A,,Mostly Cloudy,240,2013-04-14 13:55:00
8:15 AM,33.8,24.8,70,29.76,10.0,SW,11.5,18.4,N/A,,Mostly Cloudy,230,2013-04-14 14:15:00
8:35 AM,32.0,23.0,69,29.77,10.0,SW,12.7,-,N/A,,Scattered Clouds,230,2013-04-14 14:35:00
8:55 AM,33.8,24.8,70,29.79,10.0,WSW,13.8,21.9,N/A,,Partly Cloudy,250,2013-04-14 14:55:00
9:15 AM,33.8,21.2,60,29.79,10.0,WSW,13.8,18.4,N/A,,Clear,250,2013-04-14 15:15:00
9:35 AM,33.8,19.4,56,29.80,10.0,WSW,15.0,-,N/A,,Partly Cloudy,240,2013-04-14 15:35:00
9:55 AM,33.8,21.2,60,29.80,10.0,WSW,16.1,20.7,N/A,,Partly Cloudy,250,2013-04-14 15:55:00
10:15 AM,33.8,21.2,60,29.80,10.0,WSW,12.7,20.7,N/A,,Clear,250,2013-04-14 16:15:00
10:35 AM,33.8,21.2,60,29.81,10.0,WSW,13.8,19.6,N/A,,Partly Cloudy,240,2013-04-14 16:35:00
10:55 AM,35.6,19.4,52,29.81,10.0,WSW,13.8,19.6,N/A,,Clear,240,2013-04-14 16:55:00
11:15 AM,35.6,21.2,56,29.81,10.0,WSW,12.7,21.9,N/A,,Partly Cloudy,240,2013-04-14 17:15:00
11:35 AM,35.6,21.2,56,29.81,10.0,WSW,16.1,23.0,N/A,,Clear,250,2013-04-14 17:35:00
11:55 AM,37.4,19.4,48,29.81,10.0,West,18.4,25.3,N/A,,Partly Cloudy,260,2013-04-14 17:55:00
12:15 PM,37.4,19.4,48,29.81,10.0,WSW,16.1,24.2,N/A,,Partly Cloudy,240,2013-04-14 18:15:00
12:35 PM,37.4,19.4,48,29.81,10.0,West,18.4,27.6,N/A,,Clear,270,2013-04-14 18:35:00
12:55 PM,39.2,17.6,42,29.80,10.0,West,18.4,26.5,N/A,,Clear,260,2013-04-14 18:55:00
1:15 PM,39.2,19.4,45,29.79,10.0,West,24.2,31.1,N/A,,Clear,270,2013-04-14 19:15:00
1:35 PM,39.2,19.4,45,29.79,10.0,West,20.7,32.2,N/A,,Clear,270,2013-04-14 19:35:00
1:55 PM,41.0,19.4,42,29.79,10.0,West,17.3,25.3,N/A,,Clear,280,2013-04-14 19:55:00
2:35 PM,42.8,19.4,39,29.78,10.0,West,16.1,24.2,N/A,,Clear,260,2013-04-14 20:35:00
2:55 PM,42.8,19.4,39,29.78,10.0,West,17.3,23.0,N/A,,Clear,280,2013-04-14 20:55:00
3:15 PM,42.8,17.6,36,29.77,10.0,West,16.1,25.3,N/A,,Clear,270,2013-04-14 21:15:00
3:35 PM,42.8,17.6,36,29.76,10.0,West,18.4,25.3,N/A,,Clear,260,2013-04-14 21:35:00
3:55 PM,44.6,15.8,31,29.76,10.0,West,19.6,28.8,N/A,,Clear,270,2013-04-14 21:55:00
4:15 PM,44.6,17.6,34,29.75,10.0,WSW,18.4,31.1,N/A,,Clear,250,2013-04-14 22:15:00
4:35 PM,46.4,17.6,32,29.75,10.0,West,18.4,28.8,N/A,,Clear,280,2013-04-14 22:35:00
4:55 PM,44.6,15.8,31,29.75,10.0,WSW,20.7,25.3,N/A,,Clear,250,2013-04-14 22:55:00
5:15 PM,44.6,15.8,31,29.75,10.0,West,15.0,23.0,N/A,,Clear,280,2013-04-14 23:15:00
5:35 PM,44.6,15.8,31,29.75,10.0,West,11.5,24.2,N/A,,Clear,270,2013-04-14 23:35:00
5:55 PM,44.6,15.8,31,29.75,10.0,WSW,13.8,26.5,N/A,,Clear,250,2013-04-14 23:55:00
6:15 PM,44.6,15.8,31,29.75,10.0,WSW,9.2,21.9,N/A,,Clear,250,2013-04-15 00:15:00
6:35 PM,44.6,15.8,31,29.75,10.0,West,8.1,-,N/A,,Clear,260,2013-04-15 00:35:00
6:55 PM,44.6,15.8,31,29.76,10.0,West,8.1,-,N/A,,Clear,260,2013-04-15 00:55:00
7:15 PM,44.6,15.8,31,29.76,10.0,WSW,10.4,-,N/A,,Clear,250,2013-04-15 01:15:00
7:35 PM,42.8,15.8,34,29.76,10.0,WSW,4.6,-,N/A,,Clear,240,2013-04-15 01:35:00
7:55 PM,41.0,15.8,36,29.76,10.0,NNE,5.8,-,N/A,,Clear,30,2013-04-15 01:55:00
8:15 PM,39.2,15.8,39,29.76,10.0,NW,3.5,-,N/A,,Clear,310,2013-04-15 02:15:00
8:35 PM,37.4,17.6,45,29.76,10.0,North,3.5,-,N/A,,Clear,10,2013-04-15 02:35:00
8:55 PM,37.4,17.6,45,29.77,10.0,Calm,Calm,-,N/A,,Clear,0,2013-04-15 02:55:00
9:15 PM,35.6,19.4,52,29.76,10.0,NNW,6.9,-,N/A,,Partly Cloudy,340,2013-04-15 03:15:00
9:35 PM,35.6,19.4,52,29.76,10.0,NNW,3.5,-,N/A,,Partly Cloudy,340,2013-04-15 03:35:00
9:55 PM,35.6,19.4,52,29.77,10.0,North,4.6,-,N/A,,Clear,350,2013-04-15 03:55:00
10:15 PM,35.6,21.2,56,29.76,10.0,NE,5.8,-,N/A,,Clear,40,2013-04-15 04:15:00
10:35 PM,35.6,21.2,56,29.76,10.0,North,3.5,-,N/A,,Scattered Clouds,350,2013-04-15 04:35:00
10:55 PM,35.6,21.2,56,29.76,10.0,Calm,Calm,-,N/A,,Overcast,0,2013-04-15 04:55:00
11:15 PM,35.6,21.2,56,29.74,10.0,NNE,9.2,-,N/A,,Overcast,20,2013-04-15 05:15:00
11:35 PM,35.6,21.2,56,29.76,10.0,NNW,4.6,-,N/A,,Overcast,340,2013-04-15 05:35:00
11:55 PM,35.6,21.2,56,29.74,10.0,NNE,6.9,-,N/A,,Overcast,30,2013-04-15 05:55:00